Location: Aubrey
(33.1990°N, 85.1361°W)
Time: 20:45:47
(UTC+00:00)

Envisat - Pass Details

Date: 23 September 2021
Orbit: 764 x 766 km, 98.2° (Epoch: 15 October)

Event Time Altitude Azimuth Distance (km) Brightness Sun altitude
Rises 10:15:21 0° 21° (NNE) 3,233 6.7 -16.3°
Reaches altitude 10° 10:17:47 10° 28° (NNE) 2,303 6.0 -15.8°
Maximum altitude 10:22:34 42° 99° (E) 1,089 4.3 -14.8°
Drops below altitude 10° 10:27:20 10° 169° (S) 2,290 5.5 -13.8°
Sets 10:29:44 0° 176° (S) 3,212 6.2 -13.3°
